GW6965 Weather Reports


time (UTC)temp
C
wind
direction
speed
KPH
gust
KPH
rain 1hr
cm
rain 24hr
cm
rain mn
cm
humidity
%
barometer
mb
20260507081531 1 318 0.0 0.0 0.00 0.00 0.00 95 1013.7
20260507081028 1 318 0.0 0.0 0.00 0.00 0.00 95 1013.8
20260507080523 1 303 0.0 0.0 0.00 0.00 0.00 95 1013.8
20260507080020 1 303 0.0 0.0 0.00 0.00 0.00 95 1013.9
20260507075515 1 304 0.0 1.6 0.00 0.00 0.00 95 1013.9
20260507075012 1 303 0.0 0.0 0.00 0.00 0.00 94 1013.8
20260507074509 2 303 0.0 0.0 0.00 0.00 0.00 94 1013.7
20260507074008 2 303 0.0 1.6 0.00 0.00 0.00 93 1013.7
20260507073503 2 254 0.0 1.6 0.00 0.00 0.00 93 1013.7
20260507073000 2 253 0.0 1.6 0.00 0.00 0.00 92 1013.6
20260507072458 2 233 0.0 0.0 0.00 0.00 0.00 91 1013.6
20260507071954 3 233 0.0 0.0 0.00 0.00 0.00 91 1013.6
20260507071452 3 234 0.0 0.0 0.00 0.00 0.00 90 1013.6
20260507070948 3 245 1.6 1.6 0.00 0.00 0.00 90 1013.5
20260507070446 3 253 0.0 3.2 0.00 0.00 0.00 90 1013.7
20260507065942 3 235 1.6 1.6 0.00 0.00 0.00 90 1013.5
20260507065439 3 249 3.2 4.8 0.00 0.00 0.00 89 1013.6
20260507064936 3 243 1.6 3.2 0.00 0.00 0.00 89 1013.6
20260507064434 3 239 1.6 3.2 0.00 0.00 0.00 89 1013.8
20260507063932 3 297 0.0 1.6 0.00 0.00 0.00 88 1013.6
20260507063428 3 298 0.0 3.2 0.00 0.00 0.00 89 1013.5
20260507062926 3 21 1.6 3.2 0.00 0.00 0.00 89 1013.6
20260507062423 4 325 0.0 1.6 0.00 0.00 0.00 89 1013.7
20260507061920 4 192 0.0 0.0 0.00 0.00 0.00 88 1013.8
20260507061418 4 280 0.0 1.6 0.00 0.00 0.00 87 1013.7
20260507060917 4 261 1.6 4.8 0.00 0.00 0.00 86 1013.7
20260507060413 4 282 4.8 6.4 0.00 0.00 0.00 87 1013.7
20260507055909 4 269 1.6 4.8 0.00 0.00 0.00 87 1013.7
20260507055404 4 254 1.6 3.2 0.00 0.00 0.00 86 1013.8
20260507054902 4 241 3.2 3.2 0.00 0.00 0.00 86 1013.5
20260507054358 5 256 1.6 3.2 0.00 0.00 0.00 86 1013.5
20260507053855 5 284 1.6 3.2 0.00 0.00 0.00 86 1013.6
20260507053353 5 298 0.0 3.2 0.00 0.00 0.00 86 1013.4
20260507052851 5 319 1.6 6.4 0.00 0.00 0.00 86 1013.7
20260507052348 5 261 4.8 9.7 0.00 0.00 0.00 88 1013.6
20260507051845 5 262 8.0 9.7 0.00 0.00 0.00 88 1013.7
20260507051343 5 271 8.0 9.7 0.00 0.00 0.00 90 1013.7
20260507050839 5 266 6.4 11.3 0.00 0.00 0.00 91 1013.8
20260507050336 5 291 8.0 11.3 0.00 0.00 0.00 92 1013.8
20260507045833 5 280 4.8 9.7 0.00 0.00 0.00 92 1013.7
20260507045329 5 263 4.8 4.8 0.00 0.00 0.00 93 1013.6
20260507044827 5 266 9.7 11.3 0.00 0.00 0.00 94 1013.6
20260507044323 6 306 3.2 4.8 0.00 0.00 0.00 95 1013.6
20260507043819 6 257 3.2 4.8 0.00 0.00 0.00 96 1013.6
20260507043316 6 2 0.0 4.8 0.00 0.00 0.00 97 1013.6
20260507042812 6 297 3.2 9.7 0.00 0.00 0.00 97 1013.6
20260507042308 6 275 3.2 4.8 0.00 0.00 0.00 97 1013.5
20260507041805 6 278 4.8 6.4 0.00 0.00 0.00 97 1013.4
20260507041301 6 250 3.2 4.8 0.00 0.00 0.00 97 1013.4
20260507040759 6 255 3.2 4.8 0.00 0.00 0.00 97 1013.5
20260507040255 6 260 3.2 3.2 0.00 0.00 0.00 97 1013.1
20260507035751 6 245 3.2 3.2 0.00 1.24 1.24 97 1013.2
20260507035246 6 211 0.0 0.0 0.00 1.24 1.24 97 1013.0
20260507034744 6 211 0.0 1.6 0.00 1.24 1.24 97 1012.8
20260507034241 6 211 0.0 0.0 0.00 1.24 1.24 97 1012.9
20260507033739 6 210 0.0 0.0 0.00 1.24 1.24 97 1012.8
20260507033236 6 210 0.0 0.0 0.00 1.24 1.24 97 1012.4
20260507032733 6 210 0.0 1.6 0.00 1.24 1.24 97 1012.6
20260507032229 6 210 0.0 0.0 0.00 1.24 1.24 97 1012.6
20260507031726 6 210 0.0 0.0 0.00 1.24 1.24 97 1012.9
20260507031223 6 210 0.0 0.0 0.00 1.24 1.24 97 1013.1
20260507030720 6 211 0.0 0.0 0.00 1.24 1.24 97 1013.1
20260507030217 6 211 0.0 0.0 0.00 1.24 1.24 97 1013.2
20260507025714 6 211 0.0 1.6 0.00 1.24 1.24 97 1013.4
20260507025211 5 210 0.0 1.6 0.00 1.24 1.24 97 1013.5
20260507024710 5 208 0.0 0.0 0.13 1.24 1.24 97 1013.3
20260507024206 5 208 0.0 1.6 0.43 1.24 1.24 97 1013.1
20260507023701 6 231 0.0 1.6 0.48 1.22 1.22 97 1013.3
20260507023159 5 242 0.0 0.0 0.18 1.17 1.17 97 1013.2
20260507022656 5 242 0.0 0.0 0.00 1.14 1.14 97 1013.3
20260507022152 5 242 0.0 0.0 0.00 1.14 1.14 97 1013.3
20260507021648 5 307 0.0 0.0 0.00 1.14 1.14 97 1013.4
20260507021143 5 275 1.6 1.6 0.00 1.14 1.14 97 1013.1
20260507020643 5 255 0.0 0.0 0.00 1.14 1.14 97 1013.4
20260507020138 5 255 0.0 0.0 0.00 1.14 1.14 97 1013.4
20260507015637 5 255 0.0 0.0 0.00 1.14 1.14 97 1013.2
20260507015134 5 255 0.0 0.0 0.00 1.14 1.14 96 1013.5
20260507014630 5 255 0.0 0.0 0.00 1.14 1.14 96 1013.6
20260507014126 5 255 0.0 0.0 0.00 1.14 1.14 96 1013.4
20260507013623 5 255 0.0 0.0 0.00 1.14 1.14 96 1013.5
20260507013120 5 255 0.0 0.0 0.00 1.14 1.14 96 1013.8
20260507012618 5 255 0.0 0.0 0.00 1.14 1.14 96 1013.4
20260507012113 5 255 0.0 0.0 0.00 1.14 1.14 96 1013.4
20260507011611 5 255 0.0 0.0 0.00 1.14 1.14 96 1013.3
20260507011107 5 255 0.0 0.0 0.00 1.14 1.14 96 1013.3
20260507010602 5 256 0.0 0.0 0.00 1.14 1.14 96 1013.3
20260507010058 5 255 0.0 0.0 0.00 1.14 1.14 95 1013.4
20260507005556 5 255 0.0 0.0 0.00 1.14 1.14 95 1013.4
20260507005052 5 255 0.0 0.0 0.00 1.14 1.14 95 1013.3
20260507004549 6 255 0.0 0.0 0.00 1.14 1.14 95 1013.1
20260507004046 6 256 0.0 0.0 0.00 1.14 1.14 95 1012.8
20260507003542 6 255 0.0 0.0 0.00 1.14 1.14 94 1012.9
20260507003037 6 255 0.0 0.0 0.00 1.14 1.14 94 1012.6
20260507002534 6 255 0.0 0.0 0.00 1.14 1.14 94 1012.5
20260507002030 6 255 0.0 0.0 0.00 1.14 1.14 93 1012.6
20260507001527 6 255 0.0 0.0 0.00 1.14 1.14 93 1012.8
20260507001025 6 255 0.0 1.6 0.00 1.14 1.14 93 1012.8
20260507000520 6 255 1.6 1.6 0.00 1.14 1.14 92 1012.6
20260507000016 6 257 0.0 3.2 0.00 1.14 1.14 92 1012.6
20260506235514 6 284 0.0 0.0 0.00 1.14 1.14 92 1012.4
20260506235009 7 268 1.6 1.6 0.00 1.14 1.14 92 1012.6
20260506234507 7 247 0.0 1.6 0.00 1.14 1.14 92 1012.5
20260506234004 7 255 0.0 1.6 0.00 1.14 1.14 91 1012.6
20260506233500 7 255 0.0 3.2 0.00 1.14 1.14 91 1012.4
20260506232957 7 257 1.6 3.2 0.00 1.14 1.14 91 1012.3
20260506232454 7 251 0.0 1.6 0.00 1.14 1.14 92 1012.3
20260506231949 7 251 0.0 1.6 0.00 1.14 1.14 92 1012.3
20260506231447 7 273 0.0 1.6 0.00 1.14 1.14 92 1012.2
20260506230944 7 273 0.0 0.0 0.00 1.14 1.14 91 1012.2
20260506230440 6 274 0.0 1.6 0.00 1.14 1.14 91 1012.0
20260506225937 6 257 0.0 3.2 0.00 1.14 1.14 91 1012.0
20260506225434 6 284 1.6 4.8 0.00 1.14 1.14 91 1012.1
20260506224931 6 274 4.8 4.8 0.00 1.14 1.14 91 1012.0
20260506224428 7 256 3.2 4.8 0.00 1.14 1.14 91 1011.7
20260506223925 7 282 4.8 4.8 0.00 1.14 1.14 91 1011.8
20260506223420 7 301 3.2 3.2 0.00 1.14 1.14 91 1011.8
20260506222918 7 259 4.8 4.8 0.00 1.14 1.14 91 1012.0
20260506222414 7 249 3.2 4.8 0.00 1.14 1.14 91 1011.9
20260506221911 7 280 0.0 4.8 0.00 1.14 1.14 91 1011.7
20260506221408 7 294 3.2 4.8 0.00 1.14 1.14 90 1011.6
20260506220906 7 287 1.6 6.4 0.00 1.14 1.14 91 1011.8
20260506220401 7 279 0.0 4.8 0.00 1.14 1.14 91 1011.6
20260506215858 7 287 4.8 9.7 0.00 1.14 1.14 90 1011.8
20260506215354 7 270 3.2 6.4 0.00 1.14 1.14 91 1011.9
20260506214850 7 260 3.2 6.4 0.00 1.14 1.14 91 1011.8
20260506214347 7 289 3.2 4.8 0.00 1.14 1.14 91 1011.7
20260506213845 7 264 4.8 6.4 0.00 1.14 1.14 91 1011.8
20260506213342 7 276 1.6 3.2 0.00 1.14 1.14 91 1011.6
20260506212839 7 277 3.2 9.7 0.00 1.14 1.14 91 1011.7
20260506212335 7 267 4.8 11.3 0.00 1.14 1.14 91 1011.8
20260506211830 7 295 6.4 11.3 0.00 1.14 1.14 91 1011.6
20260506211326 7 289 3.2 11.3 0.00 1.14 1.14 91 1011.4
20260506210824 7 0 1.6 6.4 0.00 1.14 1.14 91 1011.5
20260506210321 7 4 3.2 9.7 0.00 1.14 1.14 92 1011.4
20260506205818 7 238 1.6 3.2 0.00 1.14 1.14 92 1011.5
20260506205314 7 275 4.8 12.9 0.00 1.14 1.14 92 1011.5
20260506204810 7 250 6.4 9.7 0.00 1.14 1.14 92 1011.4
20260506204308 7 245 6.4 11.3 0.00 1.14 1.14 93 1011.3
20260506203806 7 281 3.2 4.8 0.00 1.14 1.14 93 1011.2
20260506203303 7 276 9.7 11.3 0.00 1.14 1.14 92 1011.1
20260506202759 7 186 3.2 4.8 0.00 1.14 1.14 92 1010.9
20260506202256 7 237 4.8 14.5 0.00 1.14 1.14 92 1011.0
20260506201753 7 293 12.9 14.5 0.00 1.14 1.14 92 1010.8
20260506201250 7 292 4.8 6.4 0.00 1.14 1.14 92 1010.6
20260506200747 7 304 4.8 6.4 0.00 1.14 1.14 92 1010.3
20260506200243 7 280 1.6 9.7 0.00 1.14 1.14 93 1010.7
20260506195739 7 267 6.4 11.3 0.00 1.14 1.14 92 1010.7
20260506195236 7 261 6.4 9.7 0.00 1.14 1.14 92 1010.6
20260506194733 7 299 9.7 20.9 0.00 1.14 1.14 91 1010.5
20260506194230 7 81 1.6 4.8 0.00 1.14 1.14 92 1010.2
20260506193728 7 271 3.2 9.7 0.00 1.14 1.14 93 1010.1
20260506193224 7 17 3.2 9.7 0.00 1.14 1.14 93 1010.2
20260506192721 7 266 6.4 9.7 0.00 1.14 1.14 93 1010.2
20260506192218 7 248 3.2 6.4 0.00 1.14 1.14 94 1010.2
20260506191714 7 255 1.6 1.6 0.00 1.14 1.14 94 1010.0
20260506191210 7 290 6.4 9.7 0.00 1.14 1.14 94 1010.2
20260506190708 7 317 1.6 9.7 0.00 1.14 1.14 94 1010.2
20260506190204 7 282 3.2 12.9 0.00 1.14 1.14 93 1010.2
20260506185702 7 259 4.8 12.9 0.00 1.14 1.14 94 1010.2
20260506185158 7 243 6.4 6.4 0.00 1.14 1.14 94 1010.1
20260506184656 7 267 1.6 4.8 0.00 1.14 1.14 94 1010.2
20260506184153 7 10 3.2 9.7 0.00 1.14 1.14 94 1009.9
20260506183649 7 12 1.6 9.7 0.00 1.14 1.14 94 1010.0
20260506183145 7 253 6.4 9.7 0.00 1.14 1.14 94 1009.9
20260506182643 7 260 4.8 6.4 0.00 1.14 1.14 94 1009.7
20260506182139 7 329 3.2 4.8 0.13 1.14 1.14 94 1009.7
20260506181638 7 255 3.2 4.8 0.13 1.14 1.14 94 1009.6
20260506181134 7 258 3.2 9.7 0.00 1.12 1.12 94 1009.7
20260506180631 7 293 3.2 11.3 0.00 1.12 1.12 94 1009.7
20260506180128 7 263 3.2 3.2 0.00 1.12 1.12 94 1009.4
20260506175624 7 346 0.0 6.4 0.00 1.12 1.12 94 1009.3
20260506175120 7 270 1.6 4.8 0.00 1.12 1.12 94 1009.5
20260506174619 7 266 0.0 3.2 0.00 1.12 1.12 94 1009.3
20260506174115 7 319 3.2 3.2 0.00 1.12 1.12 94 1009.3
20260506173613 7 282 1.6 4.8 0.00 1.12 1.12 94 1009.3
20260506173110 7 285 6.4 11.3 0.00 1.12 1.12 94 1009.1
20260506172607 7 284 3.2 6.4 0.00 1.12 1.12 95 1009.4
20260506172103 7 18 1.6 1.6 0.00 1.12 1.12 94 1009.4
20260506171601 7 110 0.0 3.2 0.00 1.12 1.12 94 1009.3
20260506171058 7 27 8.0 9.7 0.00 1.12 1.12 94 1009.1
20260506170555 7 67 1.6 3.2 0.00 1.12 1.12 95 1009.0
20260506170053 7 0 6.4 6.4 0.00 1.12 1.12 95 1009.2
20260506165551 7 216 0.0 3.2 0.00 1.12 1.12 95 1009.2
20260506165047 7 27 0.0 9.7 0.00 1.12 1.12 95 1009.2
20260506164544 7 258 6.4 6.4 0.00 1.12 1.12 95 1009.3
20260506164042 7 258 3.2 4.8 0.00 1.12 1.12 95 1009.1
20260506163537 6 317 1.6 3.2 0.00 1.12 1.12 95 1009.3
20260506163033 7 232 3.2 6.4 0.00 1.12 1.12 95 1009.0
20260506162530 6 242 1.6 1.6 0.00 1.12 1.12 95 1009.1
20260506162027 6 246 3.2 11.3 0.00 1.12 1.12 95 1009.2
20260506161525 6 288 4.8 4.8 0.00 1.12 1.12 95 1009.2
20260506161021 7 280 1.6 6.4 0.00 1.12 1.12 95 1009.1
20260506160519 7 234 1.6 4.8 0.00 1.12 1.12 95 1009.0
20260506160016 7 78 3.2 4.8 0.00 1.12 1.12 95 1008.9
20260506155515 7 252 0.0 1.6 0.00 1.12 1.12 95 1009.2
20260506153646 6 63 0.0 3.2 0.00 1.09 1.09 96 1008.7
20260506153143 6 243 0.0 1.6 0.00 1.09 1.09 96 1008.8
20260506152640 6 235 1.6 4.8 0.13 1.09 1.09 95 1009.2
20260506152137 6 268 1.6 12.9 0.13 1.09 1.09 95 1009.1
20260506151636 6 259 3.2 3.2 0.00 1.07 1.07 96 1008.9
20260506151132 6 275 1.6 4.8 0.00 1.07 1.07 95 1008.9
20260506150629 6 224 1.6 3.2 0.00 1.07 1.07 96 1009.0
20260506150126 6 251 3.2 4.8 0.00 1.07 1.07 96 1009.3
20260506145623 6 283 3.2 6.4 0.18 1.07 1.07 96 1009.0
20260506145120 6 235 3.2 6.4 0.18 1.07 1.07 96 1008.8
20260506144617 6 272 4.8 9.7 0.00 1.04 1.04 96 1008.9
20260506144114 6 5 1.6 6.4 0.00 1.04 1.04 95 1008.7
20260506143612 7 241 4.8 4.8 0.00 1.04 1.04 95 1008.9
20260506143110 7 252 1.6 3.2 0.00 1.04 1.04 95 1008.6
20260506142607 7 62 1.6 4.8 0.00 1.04 1.04 96 1008.3
20260506142106 7 180 0.0 0.0 0.00 1.04 1.04 96 1008.0
20260506141602 7 298 0.0 4.8 0.00 1.04 1.04 96 1008.3
20260506141101 7 255 0.0 3.2 0.00 1.04 1.04 96 1008.4
20260506140558 8 283 0.0 4.8 0.00 1.04 1.04 96 1008.5
20260506140055 8 260 0.0 0.0 0.13 1.04 1.04 97 1008.5
20260506135552 8 279 6.4 6.4 0.13 1.04 1.04 97 1008.6
20260506135048 8 273 3.2 3.2 0.00 1.02 1.02 97 1008.7
20260506134545 8 12 3.2 4.8 0.00 1.02 1.02 97 1008.3
20260506134041 8 25 1.6 3.2 0.18 1.02 1.02 97 1008.6
20260506133538 8 264 3.2 6.4 0.18 1.02 1.02 97 1008.5
20260506133035 9 254 3.2 3.2 0.00 0.99 0.99 97 1008.6
20260506132532 9 252 1.6 1.6 0.18 0.99 0.99 97 1008.4
20260506132029 9 244 0.0 0.0 0.30 0.99 0.99 97 1008.4
20260506131527 9 244 0.0 0.0 0.43 0.97 0.97 97 1008.6
20260506131023 9 245 1.6 3.2 0.30 0.91 0.91 97 1008.7
20260506130520 9 240 1.6 3.2 0.30 0.89 0.89 97 1008.8
20260506130017 9 218 0.0 1.6 0.30 0.86 0.86 97 1008.7
20260506125515 9 189 0.0 1.6 0.30 0.84 0.84 97 1008.7
20260506125013 9 273 1.6 3.2 0.43 0.81 0.81 97 1008.6
20260506124511 8 257 4.8 4.8 0.30 0.76 0.76 97 1008.8
20260506124008 8 127 3.2 4.8 0.30 0.74 0.74 97 1008.9
20260506123506 8 279 6.4 9.7 0.30 0.71 0.71 97 1009.3
20260506123004 8 291 3.2 6.4 0.18 0.66 0.66 96 1009.0
20260506122500 9 252 1.6 3.2 0.30 0.66 0.66 96 1008.8
20260506121959 10 257 3.2 3.2 0.13 0.64 0.64 97 1008.9
20260506121455 9 214 0.0 0.0 0.18 0.61 0.61 97 1008.5
20260506120952 9 214 0.0 0.0 0.30 0.61 0.61 97 1008.5
20260506120449 9 214 0.0 0.0 0.30 0.58 0.58 97 1008.3
20260506115947 9 214 0.0 0.0 0.18 0.56 0.56 97 1008.3
20260506115445 9 214 0.0 0.0 0.13 0.53 0.53 97 1008.4
20260506114943 9 214 0.0 0.0 0.00 0.51 0.51 96 1008.5
20260506114440 9 214 0.0 1.6 0.00 0.51 0.51 96 1008.5
20260506113938 10 102 0.0 1.6 0.18 0.51 0.51 97 1008.4
20260506113436 10 12 0.0 1.6 0.18 0.51 0.51 97 1008.3
20260506112932 9 72 3.2 4.8 0.13 0.48 0.48 97 1008.4
20260506112430 9 72 4.8 4.8 0.13 0.48 0.48 97 1008.3
20260506111927 9 114 3.2 4.8 0.18 0.46 0.46 97 1008.4
20260506111425 8 85 1.6 3.2 0.30 0.46 0.46 97 1008.4
20260506110921 8 92 1.6 3.2 0.30 0.43 0.43 97 1008.4
20260506110420 8 57 1.6 1.6 0.30 0.41 0.41 97 1008.7
20260506105916 8 125 0.0 1.6 0.30 0.38 0.38 97 1008.7
20260506105412 8 186 0.0 0.0 0.36 0.36 0.36 97 1008.9
20260506104910 8 281 0.0 1.6 0.30 0.33 0.33 97 1008.7
20260506104408 8 150 0.0 0.0 0.13 0.30 0.30 97 1008.8
20260506103905 8 149 0.0 0.0 0.18 0.28 0.28 97 1008.6
20260506103402 8 149 0.0 0.0 0.18 0.28 0.28 97 1008.7
20260506102859 8 150 0.0 0.0 0.00 0.25 0.25 97 1008.6
20260506102358 8 150 0.0 0.0 0.13 0.25 0.25 97 1008.6
20260506101854 8 150 0.0 0.0 0.30 0.25 0.25 97 1008.7
20260506101350 8 150 0.0 0.0 0.18 0.23 0.23 97 1008.9
20260506100848 8 150 0.0 0.0 0.13 0.20 0.20 97 1008.6
20260506100346 8 146 0.0 0.0 0.18 0.18 0.18 97 1008.8
20260506095844 8 84 0.0 0.0 0.30 0.18 0.18 97 1008.9
20260506095342 8 82 0.0 1.6 0.30 0.15 0.15 97 1008.9
20260506094838 8 102 0.0 1.6 0.18 0.13 0.13 97 1008.9
20260506094337 8 103 0.0 1.6 0.00 0.10 0.10 97 1009.2
20260506093835 8 60 1.6 1.6 0.13 0.10 0.10 97 1009.1
20260506093332 8 19 1.6 1.6 0.13 0.10 0.10 97 1008.9
20260506092829 7 88 1.6 3.2 0.00 0.08 0.08 96 1008.8
20260506092327 7 237 0.0 0.0 0.18 0.08 0.08 96 1008.8
20260506091824 7 237 0.0 1.6 0.18 0.08 0.08 96 1009.0
20260506091321 7 238 1.6 1.6 0.18 0.05 0.05 96 1008.8
20260506090819 7 232 1.6 1.6 0.18 0.05 0.05 96 1008.9
20260506090316 7 231 0.0 0.0 0.00 0.03 0.03 96 1009.0
20260506085813 7 231 0.0 0.0 0.00 0.03 0.03 96 1009.1
20260506085309 8 171 0.0 1.6 0.13 0.03 0.03 96 1008.9
20260506084806 8 282 3.2 3.2 0.13 0.03 0.03 96 1009.1
20260506084302 8 234 3.2 4.8 0.00 0.00 0.00 96 1009.2
20260506083759 8 198 0.0 0.0 0.00 0.00 0.00 96 1009.2
20260506083257 8 168 0.0 0.0 0.00 0.00 0.00 96 1009.1
20260506082754 8 170 0.0 1.6 0.00 0.00 0.00 96 1009.1
20260506082249 8 172 0.0 0.0 0.00 0.00 0.00 96 1009.1